Ann Arbor, MI

10:15 PM EDT on August 17, 2017 (GMT -0400)
Ann Arbor Municipal

Weather History for KARB - September, 2014

Change the Weather History Date:

Thursday, September 4, 2014

  Actual Average Record
Temperature  
Mean Temperature 70 °F -  
Max Temperature 87 °F 77 °F 89 °F (1999)
Min Temperature 54 °F 52 °F 44 °F (2013)
Cooling Degree Days 5    
Growing Degree Days 20 (Base 50)    
Moisture  
Dew Point 60 °F    
Average Humidity 86    
Maximum Humidity 97    
Minimum Humidity 53    
Precipitation  
Precipitation 0.20 in - - ()
Sea Level Pressure  
Sea Level Pressure 30.04 in    
Wind  
Wind Speed 2 mph (SW)    
Max Wind Speed 20 mph    
Max Gust Speed 26 mph    
Visibility 4 miles    
Events Fog , Rain , Thunderstorm    
Averages and records for this station are not official NWS values.
T = Trace of Precipitation, MM = Missing Value Source: NWS Daily Summary

Daily Weather History Graph

Daily Weather History Graph

Search for Another Location

Airport or City:

Trip Planner

Search our weather history database for the weather conditions in past years. The results will help you decide how hot, cold, wet, or windy it might be!

Date:

Astronomy

Sep. 04, 2014 Rise Set
Actual Time 7:03 AM EDT 8:03 PM EDT
Civil Twilight 6:34 AM EDT 8:32 PM EDT
Nautical Twilight 6:00 AM EDT 9:06 PM EDT
Astronomical Twilight 5:24 AM EDT 9:41 PM EDT
Moon 4:43 PM EDT (9/4) 1:49 AM EDT (9/4)
Length of Visible Light 13h 57m
Length of Day
13h 00m
Waxing Gibbous, 74% of the Moon is Illuminated
Sep 4
Waxing Gibbous
Sep 8
Full
Sep 15
Last Quarter
Sep 24
New
Oct 1
First Quarter

Hourly Weather History & Observations

Time (EDT) Temp. Heat Index Dew Point Humidity Pressure Visibility Wind Dir Wind Speed Gust Speed Precip Events Conditions
12:15 AM 62.1 °F - 59.0 °F 90% 30.05 in 1.5 mi Calm Calm - N/A   Clear
12:21 AM 61.0 °F - 57.9 °F 90% 30.05 in 0.8 mi Calm Calm - N/A   Clear
12:40 AM 57.9 °F - 55.9 °F 93% 30.05 in 0.5 mi Calm Calm - N/A Fog Fog
12:45 AM 61.0 °F - 57.9 °F 90% 30.06 in 2.5 mi Calm Calm - N/A   Clear
12:53 AM 57.0 °F - 55.9 °F 96% 30.05 in 9.0 mi Calm Calm - N/A   Clear
1:18 AM 61.0 °F - 57.9 °F 90% 30.06 in 1.8 mi Calm Calm - N/A   Clear
1:22 AM 61.0 °F - 59.0 °F 93% 30.06 in 0.8 mi Calm Calm - N/A   Clear
1:42 AM 60.1 °F - 57.0 °F 90% 30.06 in 0.2 mi Calm Calm - N/A Fog Fog
1:53 AM 60.1 °F - 57.9 °F 93% 30.06 in 0.8 mi Calm Calm - N/A   Mist
2:03 AM 57.0 °F - 55.9 °F 96% 30.07 in 1.0 mi Calm Calm - N/A   Mist
2:17 AM 59.0 °F - 57.9 °F 96% 30.07 in 1.8 mi Calm Calm - N/A   Partly Cloudy
2:19 AM 57.9 °F - 57.0 °F 97% 30.07 in 5.0 mi Calm Calm - N/A   Partly Cloudy
2:32 AM 57.0 °F - 55.0 °F 93% 30.07 in 1.2 mi Calm Calm - N/A   Partly Cloudy
2:40 AM 55.9 °F - 54.0 °F 93% 30.06 in 2.5 mi Calm Calm - N/A   Clear
2:47 AM 57.2 °F - 55.4 °F 94% 30.06 in 1.0 mi Calm Calm - N/A   Clear
2:53 AM 55.9 °F - 54.0 °F 93% 30.05 in 0.5 mi Calm Calm - N/A Fog Fog
3:22 AM 55.9 °F - 53.1 °F 90% 30.05 in 1.8 mi Calm Calm - N/A   Clear
3:24 AM 57.0 °F - 54.0 °F 89% 30.05 in 3.0 mi Calm Calm - N/A   Clear
3:53 AM 59.0 °F - 55.9 °F 90% 30.04 in 5.0 mi West 3.5 mph - N/A   Clear
3:57 AM 57.9 °F - 57.0 °F 97% 30.04 in 1.8 mi Calm Calm - N/A   Clear
4:01 AM 57.9 °F - 55.9 °F 93% 30.04 in 0.8 mi Calm Calm - N/A   Clear
4:14 AM 57.0 °F - 55.0 °F 93% 30.04 in 0.5 mi SSW 3.5 mph - N/A Fog Fog
4:19 AM 57.9 °F - 55.9 °F 93% 30.04 in 1.0 mi SW 3.5 mph - N/A   Clear
4:21 AM 57.9 °F - 55.9 °F 93% 30.04 in 2.0 mi SW 3.5 mph - N/A   Clear
4:28 AM 59.0 °F - 57.0 °F 93% 30.05 in 10.0 mi Calm Calm - N/A   Clear
4:53 AM 55.9 °F - 55.0 °F 97% 30.04 in 7.0 mi Calm Calm - N/A   Clear
5:08 AM 57.9 °F - 55.9 °F 93% 30.04 in 1.2 mi Calm Calm - N/A   Clear
5:15 AM 57.9 °F - 55.9 °F 93% 30.05 in 0.5 mi Calm Calm - N/A Fog Fog
5:24 AM 57.0 °F - 55.0 °F 93% 30.04 in 1.0 mi Calm Calm - N/A   Clear
5:27 AM 57.9 °F - 55.0 °F 90% 30.04 in 3.0 mi Calm Calm - N/A   Clear
5:53 AM 55.0 °F - 53.1 °F 93% 30.03 in 2.0 mi Calm Calm - N/A   Clear
5:56 AM 55.9 °F - 54.0 °F 93% 30.04 in 1.2 mi Calm Calm - N/A   Clear
6:04 AM 54.0 °F - 52.0 °F 93% 30.04 in 0.5 mi Calm Calm - N/A Fog Fog
6:17 AM 55.0 °F - 54.0 °F 96% 30.03 in 1.8 mi Calm Calm - N/A   Clear
6:19 AM 54.0 °F - 53.1 °F 97% 30.03 in 5.0 mi Calm Calm - N/A   Clear
6:22 AM 54.0 °F - 52.0 °F 93% 30.03 in 1.8 mi South 4.6 mph - N/A   Clear
6:32 AM 55.9 °F - 54.0 °F 93% 30.03 in 3.0 mi Calm Calm - N/A   Clear
6:53 AM 55.9 °F - 53.1 °F 90% 30.04 in 7.0 mi Calm Calm - N/A   Clear
7:14 AM 55.0 °F - 53.1 °F 93% 30.04 in 1.2 mi Calm Calm - N/A   Clear
7:22 AM 55.9 °F - 54.0 °F 93% 30.04 in 0.8 mi Calm Calm - N/A   Clear
7:25 AM 55.9 °F - 55.0 °F 97% 30.04 in 1.5 mi Calm Calm - N/A   Clear
7:27 AM 57.0 °F - 55.0 °F 93% 30.04 in 4.0 mi Calm Calm - N/A   Clear
7:53 AM 61.0 °F - 57.9 °F 90% 30.04 in 8.0 mi WSW 3.5 mph - N/A   Clear
8:53 AM 66.0 °F - 61.0 °F 84% 30.05 in 10.0 mi SSW 4.6 mph - N/A   Clear
9:53 AM 73.0 °F - 62.1 °F 68% 30.04 in 10.0 mi SW 8.1 mph - N/A   Clear
10:53 AM 78.1 °F - 64.9 °F 64% 30.05 in 10.0 mi SW 12.7 mph 19.6 mph N/A   Clear
11:53 AM 81.0 °F 82.7 °F 64.9 °F 58% 30.03 in 10.0 mi SW 13.8 mph - N/A   Clear
12:53 PM 82.0 °F 83.4 °F 64.0 °F 54% 30.01 in 10.0 mi SW 13.8 mph - N/A   Clear
1:53 PM 84.0 °F 86.3 °F 66.0 °F 55% 29.98 in 10.0 mi SW 16.1 mph 20.7 mph N/A   Clear
2:53 PM 84.9 °F 88.2 °F 68.0 °F 57% 29.97 in 10.0 mi SSW 15.0 mph 21.9 mph N/A   Clear
3:53 PM 86.0 °F 88.8 °F 66.9 °F 53% 29.98 in 10.0 mi SSW 17.3 mph 24.2 mph N/A   Clear
4:53 PM 84.0 °F 87.0 °F 68.0 °F 58% 29.98 in 10.0 mi SSW 10.4 mph 17.3 mph N/A   Clear
5:44 PM 82.9 °F 85.4 °F 66.9 °F 58% 30.01 in 10.0 mi WSW 4.6 mph - N/A Thunderstorm Mostly Cloudy
5:53 PM 82.0 °F 84.9 °F 68.0 °F 62% 30.00 in 10.0 mi North 13.8 mph 23.0 mph 0.00 in Rain Light Rain
6:02 PM 80.1 °F 82.9 °F 69.1 °F 69% 30.01 in 10.0 mi North 17.3 mph 20.7 mph 0.00 in Thunderstorm Thunderstorm
6:17 PM 75.9 °F - 69.1 °F 79% 30.02 in 1.2 mi WSW 19.6 mph 26.5 mph 0.02 in Rain , Thunderstorm Light Thunderstorms and Rain
6:28 PM 75.0 °F - 66.9 °F 76% 30.03 in 2.0 mi North - - 0.07 in Rain , Thunderstorm Thunderstorms and Rain
6:35 PM 75.0 °F - 70.0 °F 84% 30.03 in 5.0 mi NW 8.1 mph - 0.09 in Rain , Thunderstorm Light Thunderstorms and Rain
6:46 PM 75.9 °F - 71.1 °F 85% 30.04 in 10.0 mi North 8.1 mph - 0.12 in   Mostly Cloudy
6:53 PM 77.0 °F - 71.1 °F 82% 30.04 in 10.0 mi North 6.9 mph - 0.13 in   Mostly Cloudy
7:53 PM 75.0 °F - 71.1 °F 87% 30.00 in 8.0 mi SE 6.9 mph - 0.07 in   Clear
8:53 PM 73.0 °F - 69.1 °F 87% 30.01 in 10.0 mi WSW 4.6 mph - N/A   Clear
9:53 PM 71.1 °F - 66.9 °F 87% 30.01 in 10.0 mi SW 4.6 mph - N/A   Clear
10:53 PM 70.0 °F - 66.0 °F 87% 30.04 in 10.0 mi WSW 5.8 mph - N/A   Clear
11:40 PM 68.0 °F - 66.0 °F 93% 30.07 in 1.5 mi Calm Calm - N/A   Clear
11:43 PM 68.0 °F - 64.9 °F 90% 30.07 in 0.8 mi Calm Calm - N/A   Clear
11:53 PM 68.0 °F - 64.9 °F 90% 30.05 in 0.8 mi Calm Calm - N/A   Clear